Погода в Жанауштогане

Погода в Жанауштогане : погода сейчас, прогноз погоды и архив. Всё, что Вы хотите узнать о погоде в Жанауштогане!

Хотите узнать прогноз погоды в Жанауштогане? Тогда Вам сюда: Погода в Жанауштогане

Поиск расширенной информации на нашем сайте:

Другие новости

Новости СМИ2

Главная страница сайта

Новости сайта

03.07.2017

Напоминаем, что на нашем специализированном сайте Метеоцентр.Азия вы можете получить высокодетализированные автоматические прогнозы погоды по пунктам России, СНГ и мира в авиационном формате (включающие направление и скорость ветра, видимость, явления погоды, количество и форму облачности, нижнюю и верхнюю границу облачности).

Рекомендуем: Подробное описание Крайслер замена катализатора на пламегаситель тут.

Погода в Жанауштогане - сегодня

Время (UTC), дата Ветер
(°,м/с) 
Видим.   Явления Облачность Т
(°С)
Тd
(°С)
f(%) Тe
(°С)
Pmin
(гПа)
dP
(гПа)
Po
(мм)
O2
(г/м3)
Тmin Tmax R s Состояние
почвы
12 20.08.17 110 (В) 20000 м  в посл. час ливневой дождь  9/9 600 м кучево-дожд. 
[Cb calv]
+29.1 +13.3 38 +34  1021.7  0.7  767  277           
15 20.08.17 270 (З) 20000 м    8/3 600 м кучево-дожд., средняя 
[Cb calv|Ac trans]
+30.3 +12.3 33 +34  1020.7  -1  766  276    +35.3       
18 20.08.17 тихо ()   20000 м    8/4 600 м кучево-дожд., средняя 
[Cb calv|Ac trans]
+24.6 +9.9 39 +25  1021  0.4  767  282    +35.3  0.4     
21 20.08.17 тихо ()   20000 м    3/0 средняя 
[Ac trans]
+21 +9.4 47 +21  1020.5  -0.5  766  285           
00 21.08.17 тихо ()   20000 м    ясно 
+17.2 +8.2 55 +17  1020  -0.5  766  289           
03 21.08.17 090 (В) 20000 м    9/9 600 м кучево-дожд., средняя 
[Cb calv|Ac trans]
+18.6 +7.7 49 +20  1019.7  -0.3  766  288  +17        сухая 
06 21.08.17 090 (В) 20000 м    8/3 600 м кучево-дожд., средняя, верхняя 
[Cb calv|Ac trans|Ci fib]
+26 +6.8 29 +26  1019.8  0.1  766  281  +17         
09 21.08.17 090 (В) 20000 м    8/6 600 м средняя, верхняя 
[Ac trans|Ci sp]
+32.4 +6.4 20 +32  1020.1  0.2  766  275           
12 21.08.17 140 (ЮВ) 20000 м    8/0 средняя, верхняя 
[Ac trans|Ci sp]
+33 +4.6 17 +33  1017.8  -2.3  764  274           
15 21.08.17 140 (ЮВ) 20000 м    6/0 средняя, верхняя 
[Ac trans|Ci sp]
+31 +4.8 19 +31  1016.9  -0.9  764  276    +35.5       
18 21.08.17 тихо ()   20000 м    ясно 
+24.6 +4.3 27 +25  1016.9  764  282    +35.5       
21 21.08.17 тихо ()   20000 м    ясно 
+21.2 +3.4 31 +21  1016.4  -0.4  763  285           
00 22.08.17 тихо ()   20000 м    ясно 
+17.2 +2.9 38 +17  1016.3  -0.1  763  289           
03 22.08.17 140 (ЮВ) 20000 м    ясно 
+15.4 +3.4 45 +17  1016.4  0.1  763  291  +15.3        сухая 
06 22.08.17 110 (В) 20000 м    ясно 
+29.2 +7.4 25 +29  1016.4  -0.1  763  277  +15.3         
09 22.08.17 110 (В) 20000 м  пыльный позёмок  ясно 
+33.6 +5.8 18 +34  1015.4  -1  762  273           
12 22.08.17 090 (В) 20000 м  пыльный позёмок  ясно 
+34.8 +5.3 16 +35  1014.8  -0.6  762  272           
15 22.08.17 090 (В) 20000 м  пыльный позёмок  ясно 
+33 +6.2 19 +33  1014.6  -0.2  762  273    +35.5       
18 22.08.17 090 (В) 20000 м    ясно 
+26.4 +5.1 26 +26  1014.9  0.3  762  279    +35.5       
21 22.08.17 090 (В) 20000 м    ясно 
+22.2 +4.3 31 +22  1014.1  -0.1  762  283           
00 23.08.17 090 (В) 20000 м    ясно 600 м 
+19.4 +4.8 38 +20  1014.4  -0.3  762  286           
03 23.08.17 110 (В) 20000 м    6/0 средняя, верхняя 
[Ac trans|Ci sp]
+20.6 +6.1 39 +21  1016.1  1.7  763  285           
06 23.08.17 140 (ЮВ) 20000 м  пыльный позёмок  4/0 верхняя 
[Ci sp]
+32 +7.7 22 +32  1016.8  0.6  763  274  +19.2         
09 23.08.17 160 (Ю) 20000 м  пыльный позёмок  4/0 
+35.4 +6.2 16 +35    -0.6             
12 23.08.17 160 (Ю) 10  20000 м  пыльный позёмок  4/0 верхняя 
[Ci sp]
+35 +0.6 11 +35  1015.4  -0.8  762  272           
Время (UTC), дата Ветер
(°,м/с) 
Видим.   Явления Облачность Т
(°С)
Тd
(°С)
f(%) Тe
(°С)
Pmin
(гПа)
dP
(гПа)
Po
(мм)
O2
(г/м3)
Тmin Tmax R s Состояние
почвы

Для получения пояснительной информации подведите курсор к названию столбца.

ПОГОДА в Жанауштогане - архив

Всё, что Вы хотите узнать о погоде в Жанауштогане - удобно и подробно!

Выберите нужную дату (начиная с 1 января 2015* года) и нажмите кнопку "Найти".
Будут отображены архивные сводки погоды по пункту Жанауштоган, начиная с указанной даты.


Отображать данные в формате CSV (для использования в таблицах Excel)


Внимание! Наш архив погоды предназначен исключительно для личного некоммерческого использования в познавательных целях. Если Вам необходимы официальные справки о состоянии погоды (для производственных, юридических, коммерческих и т.п. целей), обращайтесь в органы Росгидромета.

*Примечание: данная дата относится к архиву по метеостанциям СССР (Россия, СНГ, Балтия).
Архив по метеостанциям Зарубежной Европы и Азии (кроме Китая) хранится 10 дней, по другим регионам земного шара (Китай, Африка, Америка, Австралия, Океания) - 1 день.

Жанауштоган - район местоположения метеостанции


Название, широта, долгота, высота метеостанции:
Жанауштоган 47.9°ш. 48.8°д. -10 м над ур. моря [Казахстан]

Дополнительная информация

В oтличие oт бoльшинства пoгoдных сайтoв мы публикуем пoдрoбную метеoинфoрмацию в детальнoм прoфессиoнальнoм фoрмате.

Характеристики температуры и влажнoсти вoздуха измеряются на высoте 2 м в тени вдали oт зданий и деревьев.
Скoрoсть ветра измеряется на высoте 10 м (на урoвне рoста челoвека скoрoсть ветра ниже в 1.5-2 раза). Если метеoстанция нахoдится в гoрoде или в лесу, тo скoрoсть ветра занижена на 2-4 м/с пo сравнению с oткрытым местoм. Скoрoсть ветра над акватoриями крупных рек и oзёр, а также на вершинах хoлмoв на 2-5 м/с выше, чем в oбычных услoвиях.
Атмoсфернoе давление в разных тoчках местнoсти мoжет значительнo oтличаться oт давления на метеoстанции, в зависимoсти oт услoвий рельефа (при пoдъёме на 10 м давление пoнижается примернo на 1 мм рт.ст.).